www.pogodaiklimat.ru

Погода и климат >> Архив погоды >> Антарктида >> SANAE


ПОГОДА в SANAE

  • Прогноз погоды в SANAE
  • Монитор погоды в SANAE
  • Климат города

АРХИВ ПОГОДЫ в SANAE

Время (UTC), дата Ветер
(напр.,м/с)
 
Видим.   Явления Облачность Т
(С)
Тd
(С)
f
(%)
Тe
(С)
Тes
(С)
Комфортность P
(гПа)
Po
(гПа)
Тmin
(С)
Tmax
(С)
R
(мм)
R24
(мм)
S
(см)
00 12.12 В 3 н/о н/о -7.7 -14.3 59 -13 -13 994.5 892.4 -9.1 -6.0
03 12.12 В 2 н/о н/о -7.2 -15.2 53 -10 -10 993.8 892.0 -9.1 -3.2
06 12.12 ЮВ 8 40 км 1/0 1500 м
[Ac lent]
-11.3 -19.0 53 -21 -21 994.8 891.4 -12.5
09 12.12 ЮВ 9 40 км позёмок {метель} ясно -10.7 -17.6 57 -21 -20 994.1 891.0 -12.4 -9.7
12 12.12 ЮВ 12 40 км {метель} ясно -8.9 -16.3 55 -20 -20 993.2 890.8 -12.5 -6.8
15 12.12 В 9 40 км позёмок {метель} 1/0 1500 м
[Ac lent Ci sp]
-7.8 -12.3 70 -18 -17 993.2 891.2 -9.8 -6.8
18 12.12 В 8 40 км {метель} 1/0 2000 м
[Ci sp]
-8.4 -12.9 70 -18 -17 994.7 892.3 -9.8 -6.8
21 12.12 В 9 н/о н/о -11.0 -15.2 71 -21 -21 995.8 892.4 -11.0 -6.8
00 13.12 В 10 н/о н/о -12.4 -16.1 74 -24 -24 996.4 892.4 -12.8 -6.8
03 13.12 В 9 н/о н/о -12.5 -15.7 77 -23 -23 996.6 892.5 -13.4 -6.8
06 13.12 В 9 40 км позёмок {метель} 3/1 600 м
[Sc Ac trans Ci sp]
-10.6 -14.2 75 -21 -21 995.1 891.9 -13.4
09 13.12 В 10 30 км позёмок {метель} 1/1 600 м
[Sc Ac trans Ci sp]
-8.5 -13.2 69 -19 -19 993.6 891.3 -13.4 -7.7
12 13.12 В 13 20 км метель 3/1 600 м
[Sc Ac trans Cc]
-8.8 -11.8 79 -20 -20 992.1 889.9 -13.4 -7.5
15 13.12 В 15 н/о н/о -9.4 -10.7 90 -22 -22 993.0 890.4 -10.0 -7.5
18 13.12 СВ 20 <100 м слабый снег 10/0 1000 м
[As op]
-9.9 -11.1 91 -24 -24 991.5 888.9 -10.6 -7.5
21 13.12 СВ 17 н/о н/о -10.0 -11.1 92 -23 -23 993.2 890.4 -10.8 -7.5
00 14.12 В 16 н/о н/о -9.5 -10.7 91 -22 -22 994.0 891.3 -11.1 -7.5
03 14.12 В 17 н/о н/о -10.5 -11.8 90 -24 -24 995.4 892.2 -11.1 -7.5
06 14.12 В 14 <100 м слабый снег 10/0 1000 м
[As op]
-10.6 -11.9 90 -23 -23 995.8 892.5 -11.3
09 14.12 В 14 200 м сильная метель 9/1 600 м
[Sc Ac As]
-10.6 -12.0 89 -23 -23 996.9 893.5 -11.8 -9.7
15 14.12 В 17 н/о н/о -10.3 -12.0 87 -23 -23 994.5 891.5 -10.8 -8.7
18 14.12 В 15 400 м сильная метель 9/1 600 м
[Sc Ac As]
-9.4 -10.8 90 -22 -22 995.1 892.3 -10.8 -8.7
21 14.12 В 19 н/о н/о -10.3 -11.6 90 -24 -24 993.9 890.9 -11.0 -8.7
00 15.12 В 17 н/о н/о -11.6 -13.9 83 -25 -25 993.6 890.2 -11.7 -8.7
03 15.12 В 19 н/о н/о -11.0 -13.4 82 -25 -25 991.3 888.3 -12.1 -8.7
06 15.12 В 17 500 м сильная метель 9/1 600 м
[Sc Ac As]
-11.1 -13.7 81 -24 -24 990.2 887.3 -12.1
09 15.12 В 21 100 м сильная метель 9/1 600 м
[Sc Ac As]
-10.3 -12.5 84 -25 -25 988.0 885.6 -12.1 -9.6
12 15.12 В 22 100 м сильная метель 9/1 600 м
[Sc Ac As]
-9.3 -11.0 87 -23 -23 986.2 884.4 -12.1 -9.2
15 15.12 В 23 н/о н/о -9.3 -10.7 90 -24 -24 985.0 883.3 -10.4 -8.6
18 15.12 В 23 <100 м сильная метель 9/3 600 м
[Sc Ac As]
-10.2 -11.8 88 -25 -25 984.0 882.1 -10.8 -8.6
21 15.12 В 22 н/о н/о -9.6 -11.3 87 -24 -24 983.6 881.9 -10.8 -8.6
00 16.12 В 23 н/о н/о -11.4 -13.2 86 -26 -26 983.9 881.6 -11.5 -8.6
03 16.12 В 21 н/о н/о -10.9 -12.6 87 -25 -25 983.9 881.7 -11.8 -8.6
06 16.12 В 21 100 м сильная метель 9/3 600 м
[Sc Ac As]
-11.0 -12.8 87 -25 -25 982.9 880.8 -12.0
09 16.12 В 21 н/о н/о -10.6 -12.0 89 -25 -25 983.7 881.7 -12.0 -10.1
12 16.12 В 22 <100 м снег 10/0 1000 м
[As op]
-10.1 -11.4 90 -24 -24 984.4 882.5 -12.0 -9.3
15 16.12 В 20 н/о н/о -10.1 -11.4 90 -24 -24 985.3 883.3 -10.7 -9.1
18 16.12 В 20 <100 м снег 10/0 1000 м
[As op]
-10.5 -11.8 90 -24 -24 984.9 882.8 -11.1 -9.1
21 16.12 В 17 н/о н/о -10.4 -11.7 90 -24 -24 985.4 883.3 -11.4 -9.1
00 17.12 В 14 н/о н/о -11.1 -12.5 89 -23 -23 986.1 883.6 -12.2 -9.1
03 17.12 В 15 н/о н/о -10.5 -11.9 89 -23 -23 984.8 882.7 -12.2 -9.1
06 17.12 В 13 15 км метель 9/9 600 м
[Sc]
-10.8 -12.2 89 -23 -23 984.1 882.0 -12.2
09 17.12 В 14 н/о н/о -10.5 -12.2 87 -23 -23 983.4 881.4 -12.2 -9.7
12 17.12 В 15 15 км метель 9/9 1000 м
[Sc]
-9.0 -11.6 81 -21 -21 981.6 880.4 -12.2 -8.5
15 17.12 В 13 н/о н/о -8.2 -11.3 78 -20 -20 981.9 880.9 -9.8 -7.5
18 17.12 В 11 20 км метель 9/3 1000 м
[Sc Ac As]
-8.2 -10.9 81 -19 -19 980.7 879.8 -9.8 -7.5
21 17.12 В 13 н/о н/о -8.9 -12.2 77 -20 -20 980.1 879.1 -9.8 -7.5
00 18.12 В 10 н/о н/о -9.3 -12.7 76 -20 -20 980.4 879.2 -9.8 -7.5
03 18.12 В 9 н/о н/о -8.0 -13.4 65 -18 -18 978.7 878.1 -9.8 -7.5
06 18.12 В 10 30 км позёмок {метель} 9/1 1000 м
[Sc Ac As]
-7.4 -13.2 63 -17 -17 978.0 877.7 -9.8
09 18.12 В 10 20 км позёмок {метель} 9/0 1500 м
[As trans]
-6.2 -10.8 70 -16 -16 978.1 878.2 -9.8 -5.2
12 18.12 СВ 9 20 км позёмок {метель} 9/0 1500 м
[Ac As]
-6.6 -10.1 76 -16 -16 979.8 879.6 -9.8 -5.0
15 18.12 В 9 н/о н/о -7.5 -12.0 70 -17 -17 981.5 880.8 -8.3 -5.0
18 18.12 В 6 20 км {метель} 9/1 600 м
[Sc As trans]
-7.1 -11.3 72 -15 -14 982.7 882.0 -8.3 -5.0
21 18.12 ЮВ 9 н/о н/о -8.0 -12.3 71 -18 -18 982.5 881.5 -8.3 -5.0

 

Местоположение метеостанции SANAE (Антарктида): широта -71.70 долгота -2.80 высота над уровнем моря 817 м.

В архиве по умолчанию представлена погода в SANAE за последнюю неделю. Архивные данные за месяц целиком и за предыдущие месяцы, начиная с января 2011 года, Вы можете получить, выбрав интересующий диапазон дат из раскрывающегося списка и нажав кнопку "Ввод!".

Внимание! Время в таблицах - всемирное. Для получения местного времени необходимо прибавить поправку, которая в SANAE равна 0 ч.

Смотрите также архив погоды в соседних городах и на ближайших метеорологических станциях:

Погода в Troll (Антарктида) (183 км)
Погода в Neumayer Station (Антарктида) (227 км)
Погода в Soerasen (Антарктида) (257 км)
Погода в Kohnen Ep9 (Антарктида) (378 км)
Погода в Nordenskiold Base (Антарктида) (386 км)
Погода в Maitri (Антарктида) (530 км)
Погода в Novolazarevskaja (Антарктида) (532 км)
Погода в Halley (Антарктида) (851 км)
Погода в Base Belgrano Ii (Антарктида) (1130 км)
Погода в Relay Station (Антарктида) (1487 км)

Пояснения к столбцам:

Ветер - указаны скорость ветра в м/с - средняя за 10 мин, порывы в срок и между сроками (в фигурных скобках) и направление, откуда дует ветер: С - северный, СВ - северо-восточный, В - восточный, ЮВ - юго-восточный, Ю - южный, ЮЗ - юго-западный, З - западный, СЗ - северо-западный.
Видимость - горизонтальная дальность видимости в метрах или километрах. При видимости от 1 до 10 км при отсутствии осадков обычно наблюдается дымка, при ухудшении видимости до 1 км и менее - туман. В сухую погоду видимость может ухудшаться дымом, пылью или мглою.
Явления - указаны атмосферные явления, наблюдавшиеся в срок или в последний час перед сроком; фигурными скобками обозначены явления, наблюдавшиеся между сроками (за 1-3 часа до срока); квадратными скобками обозначены град или гололедные отложения с указанием их диаметра в мм.
Облачность - указаны через наклонную черту общая и нижняя облачность в баллах и высота нижней границы облаков в метрах; квадратными скобками обозначены формы облаков: Ci - перистые, Cs - перисто-слоистые, Cc - перисто-кучевые, Ac - высококучевые, As - высокослоистые, Sc - слоисто-кучевые, Ns - слоисто-дождевые, Cu - кучевые, Cb - кучево-дождевые. Подробнее классификацию облаков см. в Атласе облаков (PDF).
T - Температура воздуха - температура, измеренная на высоте 2 м над землей.
Td - Температура точки росы - температура, при понижении до которой содержащийся в воздухе водяной пар достигнет насыщения.
f - Относительная влажность воздуха - влажноcть воздуха, измеренная на высоте 2 м над землей.
Te - Эффективная температура - температура, которую ощущает одетый по сезону человек в тени. Характеристика душности погоды. При расчете учитывается влияние влажности воздуха и скорости ветра на теплоощущения человека.
Tes - Эффективная температура на солнце - температура, которую ощущает человек, с поправкой на солнечный нагрев. Характеристика знойности погоды. Зависит от высоты солнца над горизонтом, облачности и скорости ветра. Ночью, в пасмурную погоду, а также при ветре 12 м/с и более поправка равна нулю.
P - Атмосферное давление - приведенное к уровню моря атмосферное давление.
Po - Атмосферное давление - измеренное на уровне метеостанции атмосферное давление.
Tmin - Минимальная температура - минимум температуры воздуха на высоте 2 м над землей.
Tmax - Максимальная температура - максимум температуры воздуха на высоте 2 м над землей.
R - Количество осадков - Количество выпавших осадков за период времени, мм. При наведении курсора мыши на число - период времени, за который выпало указанное количество осадков.
R24 - Количество осадков - Количество выпавших осадков за 24 часа, мм.
S - Снежный покров - Высота снежного покрова, см. При наведении курсора мыши на число - состояние снежного покрова и степень покрытия местности в баллах.